Location: Unspecified
(0.0000°N, 0.0000°E)
Time: 15:04:50
(UTC+00:00)

S-56A Canister/Altair - Visible Passes

Search period start: 21 February 2019 00:00
Search period end: 03 March 2019 00:00
Orbit: 631 x 2501 km, 38.9° (Epoch: 20 February)

Date Brightness Start Highest point End Pass type
(mag) Time Alt. Az. Time Alt. Az. Time Alt. Az.
21 Feb 10.1 03:55:49 31° N 03:55:49 31° N 04:04:02 10° NNE visible
22 Feb 10.5 03:25:22 25° NNE 03:25:22 25° NNE 03:30:37 10° NNE visible
22 Feb 10.8 05:24:43 10° NW 05:28:33 12° NNW 05:32:45 10° N visible
23 Feb 10.9 02:54:48 17° NNE 02:54:48 17° NNE 02:57:10 10° NNE visible
23 Feb 10.8 04:52:15 12° NW 04:54:55 13° NNW 04:59:47 10° N visible
24 Feb 10.8 04:21:36 14° NNW 04:21:36 14° NNW 04:26:42 10° N visible
25 Feb 10.9 03:50:51 13° N 03:50:51 13° N 03:53:35 10° N visible
26 Feb 11.1 03:20:03 11° N 03:20:03 11° N 03:20:28 10° N visible
